• în România
  • Lista ţărilor
  • Pe 7 zile
  • Temperatura apei
  • Hartă satelitară
  • Meteo pe hartă
  • Widget-uri
  • user-avatar
    Intrare

    Meteo pe oră la Buar

    Astăzi, 22 Februarie, Joi

    Timp Temperatura Precipitaţii Vânt Presiune Umiditate
    00:00 +26°C° 0 mm 1 m/s 692 mmHg 64%
    01:00 +26°C° 0 mm 1 m/s 692 mmHg 66%
    02:00 +25°C° 0 mm 1 m/s 692 mmHg 69%
    03:00 +25°C° 0 mm 1 m/s 692 mmHg 71%
    04:00 +24°C° 0 mm 1 m/s 692 mmHg 74%
    05:00 +25°C° 0,1 mm 1 m/s 692 mmHg 74%
    06:00 +25°C° 0,1 mm 1 m/s 692 mmHg 74%
    07:00 +25°C° 0,1 mm 1 m/s 693 mmHg 74%
    08:00 +28°C° 0,1 mm 1 m/s 694 mmHg 64%
    09:00 +31°C° 0,1 mm 2 m/s 694 mmHg 53%
    10:00 +34°C° 0,1 mm 2 m/s 695 mmHg 42%
    11:00 +36°C° 0 mm 2 m/s 694 mmHg 37%
    12:00 +36°C° 0 mm 1 m/s 693 mmHg 33%
    13:00 +37°C° 0 mm 1 m/s 693 mmHg 28%
    14:00 +37°C° 0 mm 1 m/s 692 mmHg 28%
    15:00 +37°C° 0 mm 1 m/s 691 mmHg 28%
    16:00 +36°C° 0 mm 1 m/s 691 mmHg 27%
    17:00 +35°C° 0 mm 1 m/s 691 mmHg 31%
    18:00 +33°C° 0 mm 1 m/s 691 mmHg 34%
    19:00 +31°C° 0 mm 1 m/s 691 mmHg 37%
    20:00 +30°C° 0 mm 1 m/s 691 mmHg 41%
    21:00 +29°C° 0 mm 1 m/s 692 mmHg 44%
    22:00 +28°C° 0 mm 1 m/s 692 mmHg 47%
    23:00 +27°C° 0 mm 1 m/s 692 mmHg 49%

    Mâine, 23 Februarie, Vineri

    Timp Temperatura Precipitaţii Vânt Presiune Umiditate
    00:00 +27°C° 0 mm 1 m/s 692 mmHg 52%
    01:00 +26°C° 0 mm 1 m/s 692 mmHg 54%
    02:00 +26°C° 0,1 mm 1 m/s 692 mmHg 58%
    03:00 +25°C° 0,1 mm 2 m/s 691 mmHg 63%
    04:00 +25°C° 0,1 mm 2 m/s 691 mmHg 67%
    05:00 +25°C° 0,1 mm 2 m/s 692 mmHg 70%
    06:00 +25°C° 0,1 mm 2 m/s 692 mmHg 72%
    07:00 +25°C° 0,1 mm 2 m/s 693 mmHg 75%
    08:00 +27°C° 0 mm 2 m/s 693 mmHg 65%
    09:00 +30°C° 0 mm 2 m/s 694 mmHg 54%
    10:00 +34°C° 0 mm 2 m/s 695 mmHg 44%
    11:00 +36°C° 0 mm 2 m/s 694 mmHg 37%
    12:00 +39°C° 0 mm 1 m/s 694 mmHg 30%
    13:00 +42°C° 0 mm 1 m/s 693 mmHg 23%
    14:00 +40°C° 0 mm 1 m/s 692 mmHg 24%
    15:00 +37°C° 0 mm 1 m/s 691 mmHg 26%
    16:00 +36°C° 0 mm 1 m/s 691 mmHg 28%
    17:00 +34°C° 0 mm 1 m/s 691 mmHg 34%
    18:00 +31°C° 0 mm 1 m/s 691 mmHg 40%
    19:00 +29°C° 0 mm 1 m/s 691 mmHg 46%
    20:00 +29°C° 0 mm 1 m/s 691 mmHg 49%
    21:00 +28°C° 0 mm 1 m/s 692 mmHg 53%
    22:00 +27°C° 0 mm 1 m/s 692 mmHg 57%
    23:00 +27°C° 0 mm 1 m/s 692 mmHg 60%

    Poimâine, 24 Februarie, Sâmbătă

    Timp Temperatura Precipitaţii Vânt Presiune Umiditate
    00:00 +26°C° 0 mm 1 m/s 692 mmHg 63%
    01:00 +26°C° 0 mm 2 m/s 692 mmHg 66%
    02:00 +25°C° 0,1 mm 1 m/s 692 mmHg 68%
    03:00 +25°C° 0,1 mm 1 m/s 692 mmHg 70%
    04:00 +25°C° 0,1 mm 1 m/s 692 mmHg 73%
    05:00 +25°C° 0,1 mm 1 m/s 692 mmHg 74%
    06:00 +25°C° 0,1 mm 1 m/s 693 mmHg 76%
    07:00 +25°C° 0,1 mm 1 m/s 694 mmHg 77%
    08:00 +28°C° 0 mm 1 m/s 694 mmHg 65%
    09:00 +31°C° 0 mm 1 m/s 695 mmHg 52%
    10:00 +35°C° 0 mm 2 m/s 696 mmHg 40%
    11:00 +38°C° 0 mm 2 m/s 695 mmHg 33%
    12:00 +40°C° 0 mm 2 m/s 694 mmHg 26%
    13:00 +42°C° 0 mm 2 m/s 693 mmHg 18%
    14:00 +41°C° 0 mm 2 m/s 693 mmHg 18%
    15:00 +40°C° 0 mm 2 m/s 692 mmHg 18%
    16:00 +39°C° 0 mm 2 m/s 691 mmHg 18%
    17:00 +37°C° 0 mm 2 m/s 691 mmHg 22%
    18:00 +34°C° 0 mm 1 m/s 691 mmHg 26%
    19:00 +32°C° 0 mm 1 m/s 692 mmHg 31%
    20:00 +31°C° 0 mm 1 m/s 692 mmHg 36%
    21:00 +29°C° 0 mm 1 m/s 692 mmHg 42%
    22:00 +28°C° 0 mm 1 m/s 693 mmHg 47%
    23:00 +27°C° 0,1 mm 1 m/s 692 mmHg 53%

    25 Februarie, Duminică

    Timp Temperatura Precipitaţii Vânt Presiune Umiditate
    00:00 +27°C° 0,1 mm 1 m/s 692 mmHg 58%
    01:00 +26°C° 0,1 mm 1 m/s 692 mmHg 63%
    02:00 +26°C° 0,2 mm 1 m/s 692 mmHg 67%
    03:00 +25°C° 0,2 mm 1 m/s 692 mmHg 70%
    04:00 +25°C° 0,2 mm 1 m/s 692 mmHg 74%
    05:00 +25°C° 0,2 mm 2 m/s 693 mmHg 75%
    06:00 +25°C° 0,2 mm 2 m/s 694 mmHg 77%
    07:00 +25°C° 0,2 mm 2 m/s 694 mmHg 78%
    08:00 +27°C° 0,2 mm 2 m/s 695 mmHg 69%
    09:00 +29°C° 0,2 mm 3 m/s 695 mmHg 60%
    10:00 +33°C° 0,2 mm 3 m/s 696 mmHg 51%
    11:00 +35°C° 0 mm 3 m/s 695 mmHg 42%
    12:00 +37°C° 0 mm 2 m/s 694 mmHg 32%
    13:00 +40°C° 0 mm 2 m/s 694 mmHg 22%
    14:00 +40°C° 0 mm 2 m/s 693 mmHg 20%
    15:00 +40°C° 0 mm 2 m/s 693 mmHg 18%
    16:00 +40°C° 0 mm 2 m/s 692 mmHg 16%
    17:00 +37°C° 0 mm 2 m/s 692 mmHg 21%
    18:00 +35°C° 0 mm 2 m/s 692 mmHg 26%
    19:00 +32°C° 0 mm 2 m/s 692 mmHg 31%
    20:00 +30°C° 0 mm 2 m/s 692 mmHg 39%
    21:00 +29°C° 0 mm 1 m/s 693 mmHg 46%
    22:00 +28°C° 0 mm 1 m/s 693 mmHg 54%
    23:00 +27°C° 0 mm 1 m/s 693 mmHg 58%

    26 Februarie, Luni

    Timp Temperatura Precipitaţii Vânt Presiune Umiditate
    00:00 +26°C° 0 mm 1 m/s 692 mmHg 62%
    01:00 +26°C° 0 mm 1 m/s 692 mmHg 66%
    02:00 +25°C° 0,2 mm 1 m/s 692 mmHg 69%
    03:00 +25°C° 0,2 mm 1 m/s 692 mmHg 72%
    04:00 +24°C° 0,2 mm 1 m/s 692 mmHg 75%
    05:00 +24°C° 0 mm 2 m/s 693 mmHg 76%
    06:00 +25°C° 0 mm 2 m/s 693 mmHg 77%
    07:00 +25°C° 0 mm 2 m/s 694 mmHg 77%
    08:00 +27°C° 0 mm 2 m/s 694 mmHg 70%
    09:00 +28°C° 0 mm 3 m/s 695 mmHg 64%
    10:00 +30°C° 0 mm 3 m/s 695 mmHg 57%
    11:00 +33°C° 0 mm 3 m/s 695 mmHg 49%
    12:00 +35°C° 0 mm 2 m/s 694 mmHg 41%
    13:00 +37°C° 0 mm 2 m/s 694 mmHg 34%
    14:00 +37°C° 0 mm 2 m/s 693 mmHg 35%
    15:00 +36°C° 0 mm 2 m/s 693 mmHg 36%
    16:00 +35°C° 0 mm 2 m/s 692 mmHg 37%
    17:00 +32°C° 0 mm 2 m/s 692 mmHg 42%
    18:00 +31°C° 0 mm 2 m/s 692 mmHg 47%
    19:00 +29°C° 0 mm 2 m/s 692 mmHg 52%
    20:00 +28°C° 0 mm 2 m/s 692 mmHg 56%
    21:00 +28°C° 0 mm 1 m/s 693 mmHg 60%
    22:00 +27°C° 0 mm 1 m/s 693 mmHg 64%
    23:00 +26°C° 0 mm 1 m/s 693 mmHg 66%

    27 Februarie, Marţi

    Timp Temperatura Precipitaţii Vânt Presiune Umiditate
    00:00 +26°C° 0 mm 1 m/s 693 mmHg 68%
    01:00 +25°C° 0 mm 1 m/s 693 mmHg 70%
    02:00 +25°C° 0,9 mm 1 m/s 693 mmHg 75%
    03:00 +24°C° 0,9 mm 1 m/s 693 mmHg 81%
    04:00 +23°C° 0,9 mm 1 m/s 693 mmHg 86%
    05:00 +23°C° 0 mm 1 m/s 694 mmHg 86%
    06:00 +24°C° 0 mm 1 m/s 694 mmHg 86%
    07:00 +24°C° 0 mm 1 m/s 695 mmHg 86%
    08:00 +25°C° 0 mm 2 m/s 695 mmHg 78%
    09:00 +27°C° 0 mm 3 m/s 695 mmHg 71%
    10:00 +29°C° 0 mm 3 m/s 696 mmHg 63%
    11:00 +31°C° 0 mm 3 m/s 695 mmHg 55%
    12:00 +34°C° 0 mm 3 m/s 694 mmHg 47%
    13:00 +36°C° 0 mm 3 m/s 694 mmHg 38%
    14:00 +35°C° 0 mm 3 m/s 693 mmHg 37%
    15:00 +35°C° 0 mm 2 m/s 693 mmHg 37%
    16:00 +35°C° 0 mm 2 m/s 693 mmHg 36%
    17:00 +32°C° 0,1 mm 2 m/s 693 mmHg 40%
    18:00 +31°C° 0,1 mm 2 m/s 693 mmHg 45%
    19:00 +29°C° 0,1 mm 2 m/s 693 mmHg 50%
    20:00 +28°C° 0,4 mm 2 m/s 693 mmHg 55%
    21:00 +27°C° 0,4 mm 2 m/s 694 mmHg 61%
    22:00 +26°C° 0,4 mm 2 m/s 694 mmHg 67%
    23:00 +25°C° 0,3 mm 2 m/s 694 mmHg 71%
    Arată mai mult